Lid_Strength_Index
10 10 10 10 10 11 10 10 10 10 9 9 9 9 9 10 10 11 11 11 11 12 12 12 12 12 12 12 13 13 13 13 14 12 11 11 11 10 9 9 9 9 8
9 10 10 10 10 10 10 10 10 10 9 9 9 9 10 10 10 11 11 11 11 11 11 12 12 11 12 12 13 13 13 13 13 13 12 12 11 10 10 10 9 8 9
10 10 10 10 10 10 9 9 10 9 9 9 9 10 10 10 10 10 10 11 11 11 11 12 12 12 13 13 13 13 13 12 13 14 13 12 11 11 11 11 10 10 8
10 10 10 9 9 9 9 9 9 9 9 10 10 10 10 10 10 10 11 11 11 11 11 12 12 12 12 12 12 12 12 13 13 14 13 12 12 11 12 12 11 10 9
10 10 9 9 9 9 9 9 9 9 9 9 10 10 10 10 10 11 11 11 12 12 12 12 11 11 9 9 10 11 11 12 12 12 13 13 12 12 12 11 10 8 9
9 9 9 9 10 10 10 10 10 10 10 10 10 10 11 10 8 7 10 12 12 12 12 12 11 9 9 7 6 6 8 11 12 13 12 13 12 13 10 9 10 10 10
9 9 9 9 9 9 9 10 10 10 10 10 10 10 10 11 7 6 7 11 12 12 11 11 11 10 9 11 9 7 8 7 8 11 12 12 11 10 9 12 10 10 10
9 9 9 9 9 9 10 10 10 10 10 10 10 10 10 10 7 6 6 10 11 11 11 12 12 12 11 10 10 11 12 12 11 10 11 10 9 10 11 11 12 13 13
10 9 9 9 9 9 10 10 10 10 10 10 9 10 10 10 7 6 6 10 11 11 11 12 12 12 9 6 10 12 12 12 9 7 7 8 8 8 9 13 15 15 15
10 9 9 9 9 10 9 9 9 9 9 9 9 9 8 10 7 6 7 10 12 12 12 12 9 10 8 6 11 12 14 13 12 13 13 13 13 12 10 13 14 15 16
10 10 10 10 9 9 9 9 9 9 10 10 10 9 9 9 9 6 6 10 11 12 13 13 12 8 7 7 8 12 12 12 12 14 15 15 15 15 14 14 14 14 14
10 10 10 10 9 10 10 10 10 10 10 10 10 10 10 10 8 6 5 7 9 12 13 12 12 8 8 9 10 9 8 11 14 15 16 16 16 16 15 14 13 13 12
10 11 11 10 10 10 10 11 10 10 10 10 10 10 10 11 10 6 5 6 7 12 12 10 9 9 10 10 9 9 11 15 15 16 16 16 16 16 15 14 13 13 12
10 10 11 11 11 11 10 10 10 10 10 9 10 9 10 10 10 9 7 7 7 10 9 10 11 11 11 12 12 13 15 15 15 16 16 16 16 16 15 15 15 14 12
10 10 10 10 10 11 10 10 9 9 8 9 9 8 10 10 10 9 8 9 10 11 13 14 15 15 16 16 16 15 16 16 16 16 16 16 16 15 15 14 14 14 14
10 10 10 10 11 11 11 11 8 8 7 7 7 8 10 7 7 7 7 8 9 9 14 15 16 16 16 16 16 16 16 14 16 16 16 16 15 15 15 14 13 13 13
10 10 10 9 10 11 11 11 11 11 8 7 7 7 8 8 8 8 8 8 9 10 15 16 16 15 15 15 16 16 16 15 15 16 16 16 15 15 14 14 13 13 13
10 9 10 10 10 11 11 11 11 11 11 12 8 8 8 8 8 8 8 9 10 12 15 15 15 15 15 15 16 16 16 15 16 16 16 15 15 14 14 13 13 13 13
9 9 10 10 11 11 11 11 11 12 12 12 12 10 8 7 7 7 8 12 12 13 15 15 15 15 15 15 15 15 15 15 15 15 16 15 15 15 14 12 13 12 12
9 8 9 10 11 11 11 11 12 12 12 12 12 11 10 9 10 10 12 13 13 14 14 14 14 15 15 15 15 15 15 15 15 15 15 15 15 14 14 12 12 13 13
9 9 8 10 11 10 10 10 10 11 11 11 11 11 9 10 11 11 11 12 13 13 13 13 15 15 14 14 15 15 15 15 15 15 15 15 14 14 13 12 13 13 12
8 8 9 9 10 10 10 10 11 10 11 11 13 10 8 11 11 11 11 11 12 12 12 13 14 14 14 14 14 15 15 15 15 15 15 14 14 13 13 12 12 12 12
8 9 9 10 10 9 10 11 11 11 11 11 11 10 9 11 11 11 11 12 12 13 13 14 14 14 14 14 14 14 14 14 14 14 14 14 13 12 12 12 12 12 12
9 9 9 10 11 11 11 11 11 11 11 11 11 10 10 11 11 11 12 12 13 12 13 13 14 14 14 14 14 14 14 14 14 13 13 12 12 11 11 12 12 11 11
9 10 10 10 10 11 11 12 12 11 11 11 11 11 11 11 11 12 12 12 12 13 13 14 14 14 13 14 14 14 13 12 13 12 12 12 11 11 11 11 11 11 11
10 11 11 11 11 11 11 11 11 11 11 11 11 11 11 11 11 12 12 12 13 13 14 14 14 13 13 14 14 13 12 11 11 10 11 12 12 12 11 11 11 11 10